Regional Weather Roundup
Issued by NWS Northern Indiana

Current Version | Previous Version | Text Only | Print | Product List | Glossary On
Versions: 1 2 3 4 5 6 7 8 9 10 11 12 13 14 15 16 17 18 19 20 21 22 23 24 25 26 27 28 29 30 31 32 33 34 35 36 37 38 39 40 41 42 43 44 45 46 47 48 49 50
473
ASUS43 KIWX 251010
RWRIWX

KIWX WEATHER ROUNDUP
NATIONAL WEATHER SERVICE NORTHERN INDIANA
500 AM EST SAT FEB 25 2017

NOTE: "FAIR" INDICATES FEW OR NO CLOUDS BELOW 12,000 FEET WITH NO
SIGNIFICANT WEATHER AND/OR OBSTRUCTIONS TO VISIBILITY.

* THESE STATIONS ARE NOT UNDER NWS QUALITY CONTROL. THEY ALSO MAY NOT
  REPORT WEATHER SUCH AS PRECIPITATION OR FOG.

INZ001>027-251100-
NORTHERN INDIANA

CITY           SKY/WX    TMP DP  RH WIND       PRES   REMARKS
VALPARAISO     CLOUDY    32  24  72 W20G28    29.62R WCI  20
MICHIGAN CITY* CLOUDY    32  28  86 W13G21    29.62R WCI  22
LAPORTE*       CLOUDY    32  26  80 W12G22    29.60R WCI  23
KNOX*          CLOUDY    32  12  43 W16       29.61R WCI  21
SOUTH BEND     LGT SNOW  31  28  89 W16G28    29.58R FOG     WCI  20
GOSHEN         CLOUDY    37  29  72 W21G29    29.56R
MONTICELLO*    CLOUDY    33  30  88 W17G25    29.64R WCI  22
LOGANSPORT*    FLURRIES  34  32  93 W13G20    29.63R WCI  25
ROCHESTER*     LGT RAIN  36  32  87 W13G18    29.61R
WARSAW*        CLOUDY    36  28  75 W23       29.58R
ANGOLA*        CLOUDY    37  34  87 W9        29.53S
FORT WAYNE     MOCLDY    39  34  82 SW13      29.58R
HUNTINGTON*    LGT RAIN  34  32  92 W12G37    29.60R WCI  25
PERU/GRISSOM   CLOUDY    36  34  94 W17       29.60R
MARION*        CLOUDY    38  32  79 W17       29.63R

$$
INZ028>050-251100-
CENTRAL INDIANA

CITY           SKY/WX    TMP DP  RH WIND       PRES   REMARKS
LAFAYETTE      LGT SNOW  32  31  96 W14       29.66R VSB 1   WCI  22
KOKOMO*        CLOUDY    36  30  80 SW18      29.64R
MUNCIE*        CLOUDY    40  30  67 W14G26    29.63R
INDIANAPOLIS   CLOUDY    35  26  69 W24G30    29.70R WCI  23

$$
MIZ043>046-050>051-056>058-064>065-071>073-077>080-251100-
SOUTHWEST LOWER MICHIGAN

CITY           SKY/WX    TMP DP  RH WIND       PRES   REMARKS
BATTLE CREEK   CLOUDY    34  31  88 W13       29.52R WCI  25
BENTON HARBOR  CLOUDY    32  27  81 W16G25    29.58S WCI  21
COLDWATER*     CLOUDY    36  34  94 W10       29.53R
HILLSDALE*     CLOUDY    36  32  87 SW9       29.50R
HOLLAND        LGT SNOW  30  27  88 W14G23    29.55S FOG     WCI  19
GRAND RAPIDS   CLOUDY    31  28  89 W14       29.51R WCI  21
KALAMAZOO      LGT SNOW  33  29  85 W6        29.53F FOG     WCI  28
STURGIS*       CLOUDY    35  32  88 W10       29.53S WCI  27
THREE RIVERS*  CLOUDY    35  32  88 W10       29.54S WCI  27

$$
OHZ001>008-015>018-024>025-251100-
NORTHWEST OHIO

CITY           SKY/WX    TMP DP  RH WIND       PRES   REMARKS
WAUSEON*       CLOUDY    41  36  81 SW10      29.53F
DEFIANCE       CLOUDY    40  35  83 SW13G18   29.56S
FINDLAY        CLOUDY    42  34  73 SW9       29.55F
TOLEDO EXPRESS PTCLDY    40  35  83 SW8       29.54S
TOLEDO METCALF CLEAR     42  37  82 SW8       29.55S
LIMA           PTCLDY    41  35  79 SW16      29.58S

$$
AND FOR LAKE MICHIGAN COASTAL AND OPEN LAKE BUOY OBSERVATIONS

STATION/POSITION TEMP    WIND        PRES    VSBY  WAVE
                 AIR SEA DIR/SP/G                  HT/PER
                 (F)     (DEG/KT/KT) (MB)    (MI)  (FT/S)
CALUMET HARBOR    31     250/  6/ 12 1002.8R
MICHIGAN CITY     32     250/ 25/ 27   N/A
BURNS HARBOR      33     280/ 17/ 22 1003.4R
SAINT JOSEPH      32     280/ 16/ 22 1003.0

$$
&&




USA.gov is the U.S. government's official web portal to all federal, state and local government web resources and services.